Location: Unspecified
(44.4377°N, 88.0525°W)
Time: 14:59:15
(UTC-05:00)

Cosmos 2058 - Visible Passes

Search period start: 06 July 2015 00:00
Search period end: 16 July 2015 00:00
Orbit: 566 x 589 km, 82.5° (Epoch: 06 July)

Date Brightness Start Highest point End Pass type
(mag) Time Alt. Az. Time Alt. Az. Time Alt. Az.
06 Jul 5.4 21:13:49 10° SW 21:17:24 26° WNW 21:20:56 10° NNW visible
07 Jul 5.9 21:18:41 10° WSW 21:21:51 20° WNW 21:24:56 10° NNW visible
08 Jul 6.1 21:23:45 10° WSW 21:26:19 15° WNW 21:28:45 10° NNW visible
09 Jul 6.4 21:29:16 10° W 21:30:49 11° WNW 21:32:10 10° NW visible
